Weather in Norilsk

Russia / Krasnoyarsk Krai     69°20′38″N   88°12′37″E
temp.,
°C
wind,
m/s
gust,
m/s
humid.,
%
clouds,
%
prec.,
mm/h
press.,
hPa
HPBL,
m
26 february, fri
fri2601:00−31nne119996 0.1 102219
04:00−31nne019998 0.0 102119
07:00−30nne019999 0.1 102119
10:00−30n0199100 0.1 102022
13:00−28ene1196100 0.2 1020112
16:00−28ene1198100 0.1 102178
19:00−30e11100100 0.1 102219
22:00−31ese11100100 0.1 102219
27 february, sat
sat2701:00−32se1110098 0.1 102319
04:00−33se119993 0.0 102319
07:00−33se129988 0.1 102420
10:00−34se129980 0.0 102520
13:00−32ese129660 0.0 102538
16:00−33ese12961 0.0 102622
19:00−36se12970 0.0 102719
22:00−37se22940 0.0 102719
28 february, sun
sun2801:00−38ese22970 0.0 102819
04:00−38ese22981 0.0 102820
07:00−38ese22971 0.0 102920
10:00−38ese22951 0.0 102825
13:00−35ese33941 0.0 102896
16:00−34ese33930 0.0 102849
19:00−36ese339216 0.0 102830
22:00−36ese339582 0.0 102735
1 march, mon
mon101:00−34ese449691 0.0 102674
04:00−31ese4698100 0.1 1025204
07:00−30se5797100 0.4 1023237
10:00−29se5797100 0.3 1022249
13:00−28se5894100 0.6 1021264
16:00−27se5795100 0.2 1020234
19:00−27se5792100 0.3 1019201
22:00−27se5691100 0.0 1018159
2 march, tue
tue201:00−26se5790100 0.0 1017159
04:00−25se5789100 0.0 1016181
07:00−25se5788100 0.0 1015163
10:00−24se5687100 0.0 1014169
13:00−22se5784100 0.0 1013233
16:00−21se5783100 0.0 1013215
19:00−22ese4586100 0.0 1012101
22:00−24ese4485100 0.0 101163